Regional Weather Roundup
Issued by NWS

Home | Current Version | Previous Version | Text Only | Print | Product List | Glossary Off
Versions: 1 2 3 4 5 6 7 8 9 10 11 12 13 14 15 16 17 18 19 20 21 22 23 24 25 26 27 28

000
ASUS45 KBOU 220207
RWRCO

WEATHER ROUNDUP FOR COLORADO
NATIONAL WEATHER SERVICE DENVER/BOULDER CO
800 PM MDT SAT OCT 21 2017

NOTE: "FAIR" INDICATES FEW OR NO CLOUDS BELOW 12000 FEET WITH NO
SIGNIFICANT WEATHER AND/OR OBSTRUCTIONS TO VISIBILITY.

COZ001>005-013-030-031-220300-
...NORTHWEST COLORADO...

CITY           SKY/WX    TMP DP  RH WIND       PRES   REMARKS
CRAIG          FAIR      33  22  63 S9        30.26R WCI  25
HAYDEN         FAIR      34  22  61 CALM      30.28R
MEEKER         FAIR      35  27  72 CALM      30.27R
RABBIT EARS PA FAIR      19  18  93 W8G20     30.25R WCI   9
STEAMBOAT SPGS FAIR      32  23  71 SE6       30.26R WCI  26
WALDEN         NOT AVBL
$$

COZ006>008-011-220300-
...WEST CENTRAL VALLEYS...

CITY           SKY/WX    TMP DP  RH WIND       PRES   REMARKS
GRAND JUNCTION FAIR      44  10  25 N10       30.26R
MONTROSE       FAIR      41  15  35 SE5       30.30R
EAGLE          FAIR      34  22  61 E8        30.29R WCI  27
RIFLE          FAIR      40  26  57 E6        30.27R
DELTA          FAIR      47   8  20 SE6       30.27R
NUCLA          FAIR      45   3  18 NW3       30.33R
$$

COZ017>023-064>068-220300-
...SOUTHWEST COLORADO...

CITY           SKY/WX    TMP DP  RH WIND       PRES   REMARKS
DURANGO        FAIR      43   3  19 SW9       30.22R
CORTEZ         FAIR      44   4  19 N6        30.27R
PAGOSA SPRINGS FAIR      38   2  22 CALM      30.26R
TELLURIDE      FAIR      32  10  38 SE3       30.35R
WOLF CREEK PAS FAIR      23   0  36 SW13      30.38R WCI  11
$$

COZ009-010-012-014-032>034-037-058>063-220300-
...CENTRAL COLORADO...

CITY           SKY/WX    TMP DP  RH WIND       PRES   REMARKS
ASPEN          FAIR      29  23  78 SW7       30.28R WCI  22
BUENA VISTA    FAIR      36   9  33 NW14      30.23R
COPPER MTN     FAIR      19   9  63 MISG      30.29R
BERTHOUD PASS  FAIR      10   1  67 NW35G44   30.21R WCI -13
COTTONWOOD PAS FAIR      36  12  38 W14G31    30.24R
GUNNISON       FAIR      34  10  37 N8        30.28R WCI  27
KREMMLING      FAIR      34  21  60 E5        30.27R WCI  30
LEADVILLE      FAIR      25  11  55 N14G21    30.26R WCI  13
MONARCH PASS   FAIR      19   9  63 W36       30.39R WCI  -1
SALIDA         FAIR      42  11  28 W20G28    30.29R
SUNLIGHT       FAIR      19  12  73 SW12G18   30.35R WCI   7
WILKERSON PASS FAIR      21   1  42 W6        30.28R WCI  14
$$

COZ069>075-220300-
...SAN LUIS VALLEY/SANGRE DE CRISTO MOUNTAINS...

CITY           SKY/WX    TMP DP  RH WIND       PRES   REMARKS
ALAMOSA        FAIR      39   3  22 N6        30.23R
DEL NORTE      FAIR      34   6  31 NW5       30.24R WCI  29
LA VETA PASS   FAIR      30   1  29 SW10G18   30.36S WCI  21
SAGUACHE       FAIR      36   7  30 NW5       30.25R
$$

COZ035-036-038>040-220300-
...NORTHERN COLORADO FRONT RANGE...

CITY           SKY/WX    TMP DP  RH WIND       PRES   REMARKS
DENVER INTL AP FAIR      41  10  28 E5        30.14R
DMNS CITY PARK   N/A     46  11  24 N1        30.14S
AURORA         PTCLDY    40  10  29 SE5       30.15R
FRONT RANGE AP PTCLDY    39  12  33 E3        30.16R
ERIE MUNI ARPT FAIR      42  13  30 SE7       30.18R
BOULDER MUN AP FAIR      43  16  33 CALM      30.13R
CENTENNIAL     FAIR      43  12  28 CALM      30.15R
BROOMFIELD     PTCLDY    45  12  26 E6        30.14R
FORT COLLINS   FAIR      43  16  33 CALM      30.12R
LONGMONT       FAIR      46  13  26 W6        30.14R
$$

COZ041-046-047-076>085-087-088-220300-
...PIKES PEAK/PALMER DIVIDE AND SOUTHERN FOOTHILLS...

CITY           SKY/WX    TMP DP  RH WIND       PRES   REMARKS
COLO. SPRINGS  FAIR      40  10  29 N10       30.16R
A. F. ACADEMY  FAIR      38   5  25 NE10      30.16R
SCHRIEVER AFB  FAIR      39   8  27 N8        30.16R
CHEYENNE MTN   FAIR      45   0  15 S9        30.11R
ELLICOTT         N/A    N/A N/A N/A NE8       30.15R
FALCON         FAIR      37   6  27 NW6       30.18R
FORT CARSON    FAIR      44   7  21 NE9       30.14R
LIMON          FAIR      37  12  35 N9        30.14R
MONUMENT HILL  FAIR      32  12  43 CALM      30.19R
CANON CITY     FAIR      45   9  23 NW10      30.14R
WALSENBURG     FAIR      39  27  60 W8        30.17R
TRINIDAD       FAIR      42  22  44 SW5       30.15R
$$

COZ042>045-048>051-090-091-220300-
...NORTHEAST COLORADO...

CITY           SKY/WX    TMP DP  RH WIND       PRES   REMARKS
GREELEY ARPT   FAIR      39  19  44 N6        30.12
AKRON          FAIR      42  14  32 NW15      30.12R
BURLINGTON     FAIR      38  14  37 NW8       30.09R
WRAY           FAIR      43  18  36 NW9       30.09R
YUMA           FAIR      37  18  44 W8        30.10S
STERLING       NOT AVBL
HOLYOKE        FAIR      48  16  27 NW10      30.08S
FORT MORGAN    FAIR      41  11  29 N10       30.13S
$$

COZ086-089-092>099-220300-
...SOUTHEAST COLORADO...

CITY           SKY/WX    TMP DP  RH WIND       PRES   REMARKS
PUEBLO         FAIR      49  11  21 E6        30.12R
LA JUNTA       FAIR      47  15  27 N7        30.11R
LAMAR          FAIR      42  13  30 CALM      30.07R
SPRINGFIELD      N/A     37  19  48 N9        30.10R
$$




USA.gov is the U.S. government's official web portal to all federal, state and local government web resources and services.